Regional Weather Roundup
Issued by NWS Burlington, VT

Home | Current Version | Previous Version | Text Only | Print | Product List | Glossary On
Versions: 1 2 3 4 5 6 7 8 9 10 11 12 13 14 15 16 17 18 19 20 21 22 23 24 25 26 27 28 29 30 31 32 33 34 35 36 37 38 39 40 41 42 43 44 45 46 47 48 49 50
000
ASUS41 KBTV 181330
RWRBTV
VERMONT REGIONAL WEATHER ROUNDUP
NATIONAL WEATHER SERVICE BURLINGTON VT
800 AM EST THU DEC 18 2014

NOTE: "FAIR" INDICATES FEW OR NO CLOUDS BELOW 12,000 FEET WITH NO
SIGNIFICANT WEATHER AND/OR OBSTRUCTIONS TO VISIBILITY.

* THESE REPORTS ARE NOT UNDER NWS QUALITY CONTROL AND/OR DO NOT
  REPORT WEATHER SUCH AS PRECIPITATION AND FOG.

VTZ001>019-181400-
_____VERMONT_____


CITY           SKY/WX    TMP DP  RH WIND       PRES   REMARKS
BURLINGTON     LGT SNOW  33  31  92 N3        29.82R FOG
MONTPELIER     CLOUDY    32  29  88 NW14      29.79R
MORRISVILLE    CLOUDY    34  29  82 CALM      29.79R
ST. JOHNSBURY*   N/A     34  31  88 MISG      29.72R
LYNDONVILLE*   LGT RAIN  32  28  86 W6        29.73R
MIDDLEBURY*    CLOUDY    32  32 100 CALM      29.81R FOG
RUTLAND*       CLOUDY    34  28  80 W9G20     29.80R
SPRINGFIELD    CLOUDY    36  27  69 VRB3      29.78R
HIGHGATE*      LGT SNOW  31  31  99 CALM      29.83R
NEWPORT*       CLOUDY    30  27  87 NW9       29.76R
BENNINGTON     CLOUDY    32  27  81 W9G20     29.84R
MT. MANSFIELD*   N/A     23 N/A N/A CALM        N/A

_____LAKE CHAMPLAIN_____


CITY           SKY/WX    TMP DP  RH WIND       PRES   REMARKS
BURTON ISLAND*   N/A     34  32  93 NW1         N/A
COLCHESTER RF*   N/A     34  34 100 E8          N/A

$$

NYZ007-026>031-035-052-083-181400-
_____NORTHERN NEW YORK_____


CITY           SKY/WX    TMP DP  RH WIND       PRES   REMARKS
PLATTSBURGH    CLOUDY    34  33  96 CALM      29.82R
SARANAC LAKE   LGT SNOW  29  26  89 W5        29.79R FOG
MASSENA        LGT SNOW  32  29  88 W13       29.91R FOG
OGDENSBURG*    CLOUDY    32  30  93 W13G18    29.94R FOG
POTSDAM*       LGT SNOW  30  30 100 W10       29.91R
WATERTOWN      CLOUDY    34  26  72 W12       29.97R
FT DRUM        MIX PCPN  30  28  93 W8        29.94R FOG
ALBANY         CLOUDY    35  26  69 NW15G22   29.90R
GLENS FALLS    CLOUDY    33  31  92 CALM      29.84R

$$
NHZ002-005-011-181400-
_____NEW HAMPSHIRE_____


CITY           SKY/WX    TMP DP  RH WIND       PRES   REMARKS
LEBANON        CLOUDY    34  32  92 CALM      29.76R
KEENE          CLOUDY    34  30  86 CALM      29.78R
MT WASHINGTON  SNOW      12  12 100 NW54        N/A  VSB 0   WCI -15
PLYMOUTH       MIX PCPN  35  34  97 W9        29.73R
WHITEFIELD     FLURRIES  33  30  88 W5        29.71R

$$

_____REGIONAL QUEBEC LOCATIONS_____


CITY           SKY/WX    TMP DP  RH WIND       PRES   REMARKS
MONTREAL       LGT SNOW  32  32 100 W6        29.84R FOG
QUEBEC CITY    LGT SNOW  30  28  93 NE6       29.77R FOG
SHERBROOKE     LGT SNOW  28  28 100 W8        29.73R

_____REGIONAL ONTARIO LOCATIONS_____


CITY           SKY/WX    TMP DP  RH WIND       PRES   REMARKS
OTTAWA         LGT SNOW  28  28 100 W15G21    29.91  FOG     WCI  17

______KEY______
VSB  - VISIBILITY IN MILES
WCI  - WIND CHILL INDEX
HX   - HEAT INDEX
$$
NNNN



USA.gov is the U.S. government's official web portal to all federal, state and local government web resources and services.